Time,TemperatureF,DewpointF,PressureIn,WindDirection,WindDirectionDegrees,WindSpeedMPH,WindSpeedGustMPH,Humidity,HourlyPrecipIn,Conditions,Clouds,dailyrainin,SoftwareType,DateUTC
2013-04-03 00:12:00,28.3,13.0,29.86,ENE,72,1.0,4.0,54,0.00,,,0.00,weatherlink.com 1.10,2013-04-03 04:12:00,
2013-04-03 00:27:00,28.5,14.0,29.86,WNW,293,1.0,8.0,55,0.00,,,0.00,weatherlink.com 1.10,2013-04-03 04:27:00,
2013-04-03 00:57:00,27.8,16.0,29.86,NNW,348,1.0,5.0,61,0.00,,,0.00,weatherlink.com 1.10,2013-04-03 04:57:00,
2013-04-03 01:12:00,27.4,17.0,29.87,WNW,287,0.0,4.0,64,0.00,,,0.00,weatherlink.com 1.10,2013-04-03 05:12:00,
2013-04-03 01:27:00,27.3,17.0,29.87,NW,314,1.0,7.0,64,0.00,,,0.00,weatherlink.com 1.10,2013-04-03 05:27:00,
2013-04-03 01:42:00,27.1,16.0,29.87,West,276,1.0,5.0,62,0.00,,,0.00,weatherlink.com 1.10,2013-04-03 05:42:00,
2013-04-03 01:57:00,27.0,15.0,29.87,NW,317,1.0,7.0,60,0.00,,,0.00,weatherlink.com 1.10,2013-04-03 05:57:00,
2013-04-03 02:12:00,27.1,13.0,29.87,WSW,240,2.0,10.0,56,0.00,,,0.00,weatherlink.com 1.10,2013-04-03 06:12:00,
2013-04-03 02:27:00,27.0,13.0,29.87,West,262,1.0,5.0,56,0.00,,,0.00,weatherlink.com 1.10,2013-04-03 06:27:00,
2013-04-03 02:42:00,26.9,12.0,29.87,NW,323,1.0,4.0,54,0.00,,,0.00,weatherlink.com 1.10,2013-04-03 06:42:00,
2013-04-03 02:57:00,26.9,12.0,29.87,WNW,296,1.0,6.0,53,0.00,,,0.00,weatherlink.com 1.10,2013-04-03 06:57:00,
2013-04-03 03:12:00,26.7,12.0,29.86,NNW,327,2.0,6.0,53,0.00,,,0.00,weatherlink.com 1.10,2013-04-03 07:12:00,
2013-04-03 03:27:00,26.7,11.0,29.86,NW,307,3.0,5.0,52,0.00,,,0.00,weatherlink.com 1.10,2013-04-03 07:27:00,
2013-04-03 03:42:00,26.6,11.0,29.86,NW,314,4.0,7.0,52,0.00,,,0.00,weatherlink.com 1.10,2013-04-03 07:42:00,
2013-04-03 03:57:00,26.4,11.0,29.87,NNW,343,1.0,5.0,53,0.00,,,0.00,weatherlink.com 1.10,2013-04-03 07:57:00,
2013-04-03 04:12:00,26.2,11.0,29.87,NNW,348,1.0,10.0,53,0.00,,,0.00,weatherlink.com 1.10,2013-04-03 08:12:00,
2013-04-03 04:27:00,26.0,11.0,29.87,WSW,248,2.0,7.0,53,0.00,,,0.00,weatherlink.com 1.10,2013-04-03 08:27:00,
2013-04-03 04:43:00,25.9,11.0,29.87,WNW,288,1.0,9.0,54,0.00,,,0.00,weatherlink.com 1.10,2013-04-03 08:43:00,
2013-04-03 04:58:00,25.7,11.0,29.87,SSW,200,0.0,6.0,53,0.00,,,0.00,weatherlink.com 1.10,2013-04-03 08:58:00,
2013-04-03 05:13:00,25.5,10.0,29.88,ESE,121,1.0,5.0,53,0.00,,,0.00,weatherlink.com 1.10,2013-04-03 09:13:00,
2013-04-03 05:28:00,25.4,11.0,29.88,North,357,4.0,4.0,54,0.00,,,0.00,weatherlink.com 1.10,2013-04-03 09:28:00,
2013-04-03 05:43:00,25.3,11.0,29.89,NW,319,0.0,4.0,54,0.00,,,0.00,weatherlink.com 1.10,2013-04-03 09:43:00,
2013-04-03 05:58:00,25.0,11.0,29.89,WNW,298,2.0,3.0,55,0.00,,,0.00,weatherlink.com 1.10,2013-04-03 09:58:00,
2013-04-03 06:13:00,25.0,11.0,29.89,WNW,295,2.0,6.0,55,0.00,,,0.00,weatherlink.com 1.10,2013-04-03 10:13:00,
2013-04-03 06:28:00,24.9,11.0,29.90,North,356,1.0,4.0,55,0.00,,,0.00,weatherlink.com 1.10,2013-04-03 10:28:00,
2013-04-03 06:43:00,24.8,11.0,29.91,West,278,1.0,4.0,55,0.00,,,0.00,weatherlink.com 1.10,2013-04-03 10:43:00,
2013-04-03 06:58:00,24.8,11.0,29.91,NW,305,1.0,3.0,55,0.00,,,0.00,weatherlink.com 1.10,2013-04-03 10:58:00,
2013-04-03 07:13:00,25.0,10.0,29.92,NW,326,2.0,8.0,54,0.00,,,0.00,weatherlink.com 1.10,2013-04-03 11:13:00,
2013-04-03 07:28:00,25.6,11.0,29.92,NW,316,4.0,6.0,54,0.00,,,0.00,weatherlink.com 1.10,2013-04-03 11:28:00,
2013-04-03 07:43:00,26.3,11.0,29.92,NW,307,2.0,7.0,53,0.00,,,0.00,weatherlink.com 1.10,2013-04-03 11:43:00,
2013-04-03 07:58:00,26.6,11.0,29.92,NW,311,3.0,8.0,52,0.00,,,0.00,weatherlink.com 1.10,2013-04-03 11:58:00,
2013-04-03 08:13:00,27.1,11.0,29.92,North,350,6.0,11.0,50,0.00,,,0.00,weatherlink.com 1.10,2013-04-03 12:13:00,
2013-04-03 08:28:00,27.5,10.0,29.92,West,281,4.0,12.0,49,0.00,,,0.00,weatherlink.com 1.10,2013-04-03 12:28:00,
2013-04-03 08:43:00,28.2,12.0,29.92,NW,312,2.0,8.0,50,0.00,,,0.00,weatherlink.com 1.10,2013-04-03 12:43:00,
2013-04-03 08:59:00,28.8,11.0,29.92,NW,311,4.0,8.0,47,0.00,,,0.00,weatherlink.com 1.10,2013-04-03 12:59:00,
2013-04-03 09:13:00,29.2,11.0,29.92,WNW,288,3.0,11.0,47,0.00,,,0.00,weatherlink.com 1.10,2013-04-03 13:13:00,
2013-04-03 09:28:00,30.1,10.0,29.92,WNW,287,1.0,10.0,44,0.00,,,0.00,weatherlink.com 1.10,2013-04-03 13:28:00,
2013-04-03 09:43:00,31.0,10.0,29.91,ESE,122,1.0,8.0,42,0.00,,,0.00,weatherlink.com 1.10,2013-04-03 13:43:00,
2013-04-03 09:58:00,31.3,10.0,29.91,NW,318,5.0,13.0,41,0.00,,,0.00,weatherlink.com 1.10,2013-04-03 13:58:00,
2013-04-03 10:13:00,31.7,10.0,29.91,WNW,302,4.0,7.0,41,0.00,,,0.00,weatherlink.com 1.10,2013-04-03 14:13:00,
2013-04-03 10:28:00,32.3,10.0,29.91,NE,44,2.0,10.0,40,0.00,,,0.00,weatherlink.com 1.10,2013-04-03 14:28:00,
2013-04-03 10:43:00,33.3,10.0,29.91,North,6,3.0,12.0,38,0.00,,,0.00,weatherlink.com 1.10,2013-04-03 14:43:00,
2013-04-03 10:58:00,32.5,11.0,29.91,NW,309,3.0,9.0,40,0.00,,,0.00,weatherlink.com 1.10,2013-04-03 14:58:00,
2013-04-03 11:13:00,33.7,10.0,29.91,WNW,293,3.0,11.0,37,0.00,,,0.00,weatherlink.com 1.10,2013-04-03 15:13:00,
2013-04-03 11:28:00,33.9,10.0,29.91,West,274,1.0,10.0,37,0.00,,,0.00,weatherlink.com 1.10,2013-04-03 15:28:00,
2013-04-03 11:43:00,35.1,11.0,29.90,ENE,72,2.0,7.0,37,0.00,,,0.00,weatherlink.com 1.10,2013-04-03 15:43:00,
2013-04-03 11:59:00,36.0,10.0,29.91,WNW,294,2.0,8.0,34,0.00,,,0.00,weatherlink.com 1.10,2013-04-03 15:59:00,
2013-04-03 12:14:00,35.8,8.0,29.91,NNW,338,2.0,12.0,32,0.00,,,0.00,weatherlink.com 1.10,2013-04-03 16:14:00,
2013-04-03 12:29:00,35.8,7.0,29.91,WNW,302,4.0,15.0,30,0.00,,,0.00,weatherlink.com 1.10,2013-04-03 16:29:00,
2013-04-03 12:59:00,36.7,9.0,29.91,WNW,286,4.0,12.0,32,0.00,,,0.00,weatherlink.com 1.10,2013-04-03 16:59:00,
2013-04-03 13:14:00,37.9,10.0,29.90,NNW,332,4.0,7.0,31,0.00,,,0.00,weatherlink.com 1.10,2013-04-03 17:14:00,
2013-04-03 13:29:00,38.4,9.0,29.91,South,187,4.0,7.0,29,0.00,,,0.00,weatherlink.com 1.10,2013-04-03 17:29:00,
2013-04-03 13:59:00,39.3,8.0,29.91,NE,44,4.0,9.0,27,0.00,,,0.00,weatherlink.com 1.10,2013-04-03 17:59:00,
2013-04-03 14:14:00,39.0,6.0,29.91,NW,312,5.0,13.0,25,0.00,,,0.00,weatherlink.com 1.10,2013-04-03 18:14:00,
2013-04-03 14:29:00,39.6,5.0,29.91,NW,314,2.0,11.0,24,0.00,,,0.00,weatherlink.com 1.10,2013-04-03 18:29:00,
2013-04-03 14:44:00,40.2,7.0,29.91,NNW,345,4.0,13.0,25,0.00,,,0.00,weatherlink.com 1.10,2013-04-03 18:44:00,
2013-04-03 15:14:00,40.7,5.0,29.91,NW,304,1.0,11.0,23,0.00,,,0.00,weatherlink.com 1.10,2013-04-03 19:14:00,
2013-04-03 15:29:00,40.5,6.0,29.91,WNW,300,8.0,12.0,24,0.00,,,0.00,weatherlink.com 1.10,2013-04-03 19:29:00,
2013-04-03 15:44:00,40.7,5.0,29.90,NNW,333,4.0,13.0,23,0.00,,,0.00,weatherlink.com 1.10,2013-04-03 19:44:00,
2013-04-03 15:59:00,41.2,6.0,29.91,WNW,295,1.0,8.0,23,0.00,,,0.00,weatherlink.com 1.10,2013-04-03 19:59:00,
2013-04-03 16:14:00,41.4,6.0,29.90,NW,307,3.0,11.0,23,0.00,,,0.00,weatherlink.com 1.10,2013-04-03 20:14:00,
2013-04-03 16:29:00,40.9,6.0,29.91,NW,306,10.0,14.0,23,0.00,,,0.00,weatherlink.com 1.10,2013-04-03 20:29:00,
2013-04-03 16:44:00,41.1,7.0,29.91,NNW,330,11.0,11.0,24,0.00,,,0.00,weatherlink.com 1.10,2013-04-03 20:44:00,
2013-04-03 16:59:00,40.5,5.0,29.91,WNW,300,5.0,11.0,23,0.00,,,0.00,weatherlink.com 1.10,2013-04-03 20:59:00,
2013-04-03 17:14:00,40.3,5.0,29.92,WNW,285,4.0,11.0,23,0.00,,,0.00,weatherlink.com 1.10,2013-04-03 21:14:00,
2013-04-03 17:29:00,40.3,5.0,29.92,North,351,7.0,11.0,23,0.00,,,0.00,weatherlink.com 1.10,2013-04-03 21:29:00,
2013-04-03 17:59:00,39.2,5.0,29.93,SW,235,5.0,7.0,24,0.00,,,0.00,weatherlink.com 1.10,2013-04-03 21:59:00,
2013-04-03 18:14:00,38.8,5.0,29.94,NNW,333,4.0,10.0,24,0.00,,,0.00,weatherlink.com 1.10,2013-04-03 22:14:00,
2013-04-03 18:29:00,38.4,5.0,29.95,NNW,330,1.0,11.0,25,0.00,,,0.00,weatherlink.com 1.10,2013-04-03 22:29:00,
2013-04-03 18:44:00,37.9,7.0,29.96,WSW,238,3.0,7.0,27,0.00,,,0.00,weatherlink.com 1.10,2013-04-03 22:44:00,
2013-04-03 18:59:00,37.2,8.0,29.97,NW,309,1.0,11.0,29,0.00,,,0.00,weatherlink.com 1.10,2013-04-03 22:59:00,
2013-04-03 19:14:00,36.6,8.0,29.98,NW,322,4.0,10.0,30,0.00,,,0.00,weatherlink.com 1.10,2013-04-03 23:14:00,
2013-04-03 19:29:00,36.1,9.0,29.99,NNW,339,0.0,10.0,33,0.00,,,0.00,weatherlink.com 1.10,2013-04-03 23:29:00,
2013-04-03 19:44:00,35.6,9.0,30.00,NNW,328,3.0,9.0,33,0.00,,,0.00,weatherlink.com 1.10,2013-04-03 23:44:00,
2013-04-03 19:59:00,35.3,9.0,30.01,WNW,298,1.0,7.0,34,0.00,,,0.00,weatherlink.com 1.10,2013-04-03 23:59:00,
2013-04-03 20:14:00,34.8,10.0,30.03,NNW,335,4.0,7.0,35,0.00,,,0.00,weatherlink.com 1.10,2013-04-04 00:14:00,
2013-04-03 20:45:00,34.2,10.0,30.05,WNW,302,6.0,7.0,37,0.00,,,0.00,weatherlink.com 1.10,2013-04-04 00:45:00,
2013-04-03 21:00:00,33.9,11.0,30.05,WNW,297,1.0,9.0,38,0.00,,,0.00,weatherlink.com 1.10,2013-04-04 01:00:00,
2013-04-03 21:15:00,33.5,11.0,30.06,NW,326,2.0,6.0,40,0.00,,,0.00,weatherlink.com 1.10,2013-04-04 01:15:00,
2013-04-03 21:30:00,33.0,12.0,30.07,NW,310,1.0,5.0,41,0.00,,,0.00,weatherlink.com 1.10,2013-04-04 01:30:00,
2013-04-03 21:45:00,32.6,12.0,30.07,NW,308,1.0,5.0,43,0.00,,,0.00,weatherlink.com 1.10,2013-04-04 01:45:00,
2013-04-03 22:00:00,32.4,13.0,30.07,NNW,335,2.0,5.0,45,0.00,,,0.00,weatherlink.com 1.10,2013-04-04 02:00:00,
2013-04-03 22:15:00,32.1,13.0,30.08,WNW,290,2.0,6.0,46,0.00,,,0.00,weatherlink.com 1.10,2013-04-04 02:15:00,
2013-04-03 22:30:00,31.9,14.0,30.07,NW,310,2.0,5.0,48,0.00,,,0.00,weatherlink.com 1.10,2013-04-04 02:30:00,
2013-04-03 22:45:00,31.6,14.0,30.07,West,276,2.0,8.0,49,0.00,,,0.00,weatherlink.com 1.10,2013-04-04 02:45:00,
2013-04-03 23:00:00,31.5,14.0,30.08,West,267,2.0,10.0,49,0.00,,,0.00,weatherlink.com 1.10,2013-04-04 03:00:00,
2013-04-03 23:15:00,31.4,15.0,30.08,NNW,335,4.0,9.0,50,0.00,,,0.00,weatherlink.com 1.10,2013-04-04 03:15:00,
2013-04-03 23:30:00,31.6,15.0,30.09,NW,316,3.0,11.0,50,0.00,,,0.00,weatherlink.com 1.10,2013-04-04 03:30:00,
2013-04-03 23:45:00,31.6,15.0,30.10,WNW,283,1.0,7.0,50,0.00,,,0.00,weatherlink.com 1.10,2013-04-04 03:45:00,